This demonstration page uses our WeatherBlox Daily Observations layout. Learn more.

38.88101, -77.10428

Hourly Observations for January 26, 2017

Temp ( °F °C ) Dew Point ( °F °C ) Humidity (%) Winds ( mph kmh ) Pressure ( in mb ) Visibility ( mi km ) Precip ( " mm )
12:52 am 00:52 Mostly Cloudy 50 10 39 3.9 66 66 Calm 29.54 1001 10 16.0934 0 0
1:52 am 01:52 Mostly Cloudy 47 8.3 41 5 80 80 S 6 9 29.53 1000 10 16.0934 0 0
2:52 am 02:52 Cloudy 48 8.9 41 5 77 77 S 8 13 29.52 1000 10 16.0934 0 0
3:52 am 03:52 Cloudy 49 9.4 41 5 74 74 S 8 13 29.49 999 10 16.0934 0 0
4:52 am 04:52 Cloudy 50 10 41 5 71 71 S 6 9 29.47 998 10 16.0934 0 0
5:52 am 05:52 Mostly Clear 52 11.1 41 5 66 66 Calm 29.47 998 10 16.0934 0 0
6:43 am 06:43 Cloudy 52 11 43 6 72 72 S 6 9 29.47 998 10 16.0934 0 0
6:52 am 06:52 Cloudy with Light Rain 52 11.1 42 5.6 69 69 S 6 9 29.47 998 10 16.0934 0 0.0254
7:52 am 07:52 Cloudy with Light Rain 52 11.1 43 6.1 72 72 N 6 9 29.49 999 10 16.0934 0 0.0254
8:52 am 08:52 Cloudy 53 11.7 43 6.1 69 69 W 3 6 29.49 999 10 16.0934 0 0.0254
9:52 am 09:52 Mostly Cloudy 51 10.6 44 6.7 77 77 Calm 29.5 999 10 16.0934 0 0.0254
10:52 am 10:52 Partly Cloudy 59 15 40 4.4 49 49 NW 21 33 29.5 999 10 16.0934 0 0
11:52 am 11:52 Partly Cloudy 60 15.6 35 1.7 39 39 WNW 14 22 29.49 999 10 16.0934 0 0
12:52 pm 12:52 Partly Cloudy 58 14.4 33 0.6 39 39 NW 21 33 29.5 999 10 16.0934 0 0
1:52 pm 13:52 Partly Cloudy 59 15 30 -1.1 33 33 NW 24 39 29.52 1000 10 16.0934 0 0
2:52 pm 14:52 Mostly Sunny 54 12.2 26 -3.3 34 34 WNW 20 31 29.57 1002 10 16.0934 0 0
3:52 pm 15:52 Partly Cloudy 52 11.1 23 -5 32 32 WNW 30 48 29.62 1003 10 16.0934 0 0
4:52 pm 16:52 Partly Cloudy 49 9.4 24 -4.4 38 38 W 16 26 29.66 1004 10 16.0934 0 0
5:52 pm 17:52 Partly Cloudy 48 8.9 24 -4.4 39 39 W 14 22 29.69 1006 10 16.0934 0 0
6:52 pm 18:52 Partly Cloudy 48 8.9 24 -4.4 39 39 W 21 33 29.71 1006 10 16.0934 0 0
7:19 pm 19:19 Mostly Cloudy 48 8.9 24 -4.4 39 39 W 17 28 29.74 1007 10 16.0934 0 0
7:52 pm 19:52 Partly Cloudy 47 8.3 25 -3.9 42 42 W 16 26 29.73 1007 10 16.0934 0 0
8:52 pm 20:52 Partly Cloudy 47 8.3 25 -3.9 42 42 WNW 12 19 29.75 1008 10 16.0934 0 0
9:52 pm 21:52 Mostly Clear 46 7.8 26 -3.3 46 46 NW 8 13 29.78 1009 10 16.0934 0 0
10:52 pm 22:52 Mostly Clear 45 7.2 28 -2.2 52 52 WNW 12 19 29.8 1009 10 16.0934 0 0
11:52 pm 23:52 Partly Cloudy 44 6.7 27 -2.8 51 51 W 13 20 29.81 1010 10 16.0934 0 0

Powered by AerisWeather